Weather History for PACV - January, 2013

Change the Weather History Date:

Wednesday, January 9, 2013

  Actual Average Record
Temperature  
Mean Temperature 23 °F -  
Max Temperature 28 °F 29 °F 48 °F (1978)
Min Temperature 18 °F 12 °F -20 °F (1972)
Degree Days  
Heating Degree Days 42    
Moisture  
Dew Point 19 °F    
Average Humidity 89    
Maximum Humidity 92    
Minimum Humidity 82    
Precipitation  
Precipitation 0.00 in - - ()
Sea Level Pressure  
Sea Level Pressure 30.01 in    
Wind  
Wind Speed 0 mph (East)    
Max Wind Speed 4 mph    
Max Gust Speed -    
Visibility 10 miles    
Events      
Averages and records for this station are not official NWS values.
T = Trace of Precipitation, MM = Missing Value Source: NWS Daily Summary

Daily Weather History Graph

Daily Weather History Graph

Search for Another Location

Airport or City:

Trip Planner

Search our weather history database for the weather conditions in past years. The results will help you decide how hot, cold, wet, or windy it might be!

Date:

Astronomy

Jan. 09, 2013 Rise Set
Actual Time 9:41 AM AKST 3:57 PM AKST
Civil Twilight 8:45 AM AKST 4:53 PM AKST
Nautical Twilight 7:49 AM AKST 5:49 PM AKST
Astronomical Twilight 6:57 AM AKST 6:41 PM AKST
Moon 7:32 AM AKST (1/9) 2:07 PM AKST (1/9)
Length of Visible Light 8h 08m
Length of Day
6h 16m
Waning Crescent, 5% of the Moon is Illuminated
Jan 9
Waning Crescent
Jan 11
New
Jan 18
First Quarter
Jan 26
Full
Feb 3
Last Quarter

Hourly Weather History & Observations

Time (AKST) Temp. Windchill Dew Point Humidity Pressure Visibility Wind Dir Wind Speed Gust Speed Precip Events Conditions
12:53 AM 19.9 °F - 17.1 °F 89% 29.89 in 10.0 mi Calm Calm - N/A   Clear
1:53 AM 21.0 °F - 19.0 °F 92% 29.91 in 10.0 mi Calm Calm - N/A   Clear
2:53 AM 21.0 °F 16.2 °F 18.0 °F 88% 29.92 in 10.0 mi East 3.5 mph - N/A   Clear
3:53 AM 19.9 °F - 17.1 °F 89% 29.94 in 10.0 mi Calm Calm - N/A   Clear
4:53 AM 19.9 °F - 18.0 °F 92% 29.96 in 10.0 mi Calm Calm - N/A   Clear
5:53 AM 21.0 °F 16.2 °F 18.0 °F 88% 29.96 in 10.0 mi East 3.5 mph - N/A   Clear
6:53 AM 19.9 °F - 17.1 °F 89% 29.97 in 10.0 mi Calm Calm - N/A   Clear
7:53 AM 19.9 °F - 16.0 °F 85% 29.98 in 10.0 mi Calm Calm - N/A   Clear
9:53 AM 18.0 °F - 15.1 °F 88% 30.02 in 10.0 mi Calm Calm - N/A   Clear
10:53 AM 19.9 °F - 17.1 °F 89% 30.02 in 10.0 mi Calm Calm - N/A   Partly Cloudy
11:53 AM 23.0 °F - 21.0 °F 92% 30.04 in 10.0 mi Calm Calm - N/A   Partly Cloudy
12:53 PM 28.9 °F - 24.1 °F 82% 30.04 in 10.0 mi Calm Calm - N/A   Scattered Clouds
1:53 PM 28.9 °F - 24.1 °F 82% 30.04 in 10.0 mi Calm Calm - N/A   Scattered Clouds
2:53 PM 27.0 °F - 24.1 °F 89% 30.06 in 10.0 mi Calm Calm - N/A   Scattered Clouds
3:53 PM 24.1 °F - 21.0 °F 88% 30.06 in 10.0 mi Calm Calm - N/A   Scattered Clouds
4:53 PM 23.0 °F - 19.9 °F 88% 30.06 in 10.0 mi Calm Calm - N/A   Scattered Clouds
5:53 PM 21.0 °F - 18.0 °F 88% 30.06 in 10.0 mi Calm Calm - N/A   Scattered Clouds
6:53 PM 21.0 °F - 19.0 °F 92% 30.06 in 10.0 mi Calm Calm - N/A   Overcast
7:53 PM 21.0 °F - 19.0 °F 92% 30.06 in 10.0 mi Calm Calm - N/A   Scattered Clouds
8:53 PM 23.0 °F - 21.0 °F 92% 30.07 in 10.0 mi Calm Calm - N/A   Overcast
9:53 PM 24.1 °F - 21.0 °F 88% 30.07 in 10.0 mi Calm Calm - N/A   Overcast
10:53 PM 23.0 °F - 21.0 °F 92% 30.06 in 10.0 mi Calm Calm - N/A   Mostly Cloudy
11:53 PM 24.1 °F - 21.0 °F 88% 30.06 in 10.0 mi Calm Calm - N/A   Mostly Cloudy